Hourly Data Report for June 21, 2021

DRYDEN REGIONAL
ONTARIO
Current Station Operator: NAVCAN

49°49'39.000" N
92°44'39.000" W
412.70 m
6032125
71527
YHD

Download Data

Hourly Data (June 2021)
Hourly Data Report for June 21, 2021
TIME
LST
Temp Definition
°C
Dew Point Definition
°C
Rel Hum Definition
%
Precip. Amount Definition
mm

Wind Dir Definition
10's deg

Wind Spd Definition
km/h
Visibility Definition
km
Stn Press Definition
kPa
Hmdx Definition


Wind Chill Definition


Weather Definition


00:00 6.2 3.1 80 0.0 34 9 16.1 96.03     LegendNANA
01:00 5.9 3.6 85 0.0 31 8 16.1 96.03     LegendNANA
02:00 5.7 3.6 86 0.0 32 9 16.1 96.06     LegendNANA
03:00 6.1 4.1 87 0.0 34 8 16.1 96.09     LegendNANA
04:00 6.4 4.6 88 0.0 34 17 16.1 96.16     Rain
05:00 6.2 4.6 90 0.2 31 8 16.1 96.18     LegendNANA
06:00 7.2 4.7 84 0.0 33 9 16.1 96.24     LegendNANA
07:00 8.4 4.6 77 0.0 35 13 16.1 96.27     LegendNANA
08:00 9.8 4.2 68 0.0 30 17 16.1 96.27     LegendNANA
09:00 9.4 2.5 62 0.0 33 17 16.1 96.26     LegendNANA
10:00 10.1 1.3 54 0.0 32 15 16.1 96.26     LegendNANA
11:00 10.5 1.0 52 0.0 33 15 16.1 96.27     LegendNANA
12:00 11.9 0.5 45 0.0 33 26 16.1 96.23     LegendNANA
13:00 10.5 3.8 63 0.0 31 13 16.1 96.25     Rain
14:00 11.6 1.0 48 0.0 34 13 16.1 96.19     LegendNANA
15:00 12.3 1.4 47 0.0 30 13 16.1 96.19     LegendNANA
16:00 12.8 0.1 41 0.0 30 18 16.1 96.18     LegendNANA
17:00 13.8 1.8 44 0.0 34 18 16.1 96.15     LegendNANA
18:00 12.1 0.6 45 0.0 33 15 16.1 96.16     LegendNANA
19:00 10.9 1.0 50 0.0 33 11 16.1 96.15     LegendNANA
20:00 9.9 2.2 59 0.0 35 5 16.1 96.15     LegendNANA
21:00 9.2 3.2 66 0.0 LegendMM 4 16.1 96.16     LegendNANA
22:00 9.0 2.1 62 0.0 24 5 16.1 96.15     LegendNANA
23:00 7.4 3.3 75 0.0 25 9 16.1 96.14     LegendNANA

Notes on Data Quality.

Legend

  • E = Estimated
  • M = Missing
  • NA = Not Available*
  • [empty] = Indicates an unobserved value
Date modified: